TimeCEST,TemperatureF,Dew PointF,Humidity,Sea Level PressureIn,VisibilityMPH,Wind Direction,Wind SpeedMPH,Gust SpeedMPH,PrecipitationIn,Events,Conditions,WindDirDegrees,DateUTC
12:25 AM,57.2,53.6,88,29.92,6.2,ENE,13.8,-,N/A,,Overcast,60,2013-05-07 22:25:00
12:55 AM,57.2,53.6,88,29.92,6.2,ENE,10.4,-,N/A,,Overcast,60,2013-05-07 22:55:00
1:25 AM,55.4,51.8,88,29.92,6.2,ENE,8.1,-,N/A,,Scattered Clouds,60,2013-05-07 23:25:00
1:55 AM,55.4,53.6,94,29.92,6.2,ENE,8.1,-,N/A,,Overcast,60,2013-05-07 23:55:00
2:00 AM,55,53,89,29.91,6,ENE,6.7,,,,Partly Cloudy,60,2013-05-08 00:00:00
2:25 AM,55.4,51.8,88,29.89,5.6,ENE,5.8,-,N/A,,Mostly Cloudy,70,2013-05-08 00:25:00
2:55 AM,55.4,53.6,94,29.89,5.6,East,4.6,-,N/A,,Overcast,90,2013-05-08 00:55:00
3:25 AM,55.4,53.6,94,29.86,5.6,East,4.6,-,N/A,,Overcast,80,2013-05-08 01:25:00
3:55 AM,55.4,53.6,94,29.86,5.0,ENE,4.6,-,N/A,,Overcast,70,2013-05-08 01:55:00
4:25 AM,55.4,53.6,94,29.86,5.0,East,4.6,-,N/A,,Overcast,100,2013-05-08 02:25:00
4:55 AM,55.4,53.6,94,29.86,5.0,East,4.6,-,N/A,,Overcast,100,2013-05-08 02:55:00
5:00 AM,56,53,86,29.86,4,East,4.5,,,,Mist,100,2013-05-08 03:00:00
5:25 AM,55.4,53.6,94,29.83,5.0,ESE,4.6,-,N/A,,Overcast,110,2013-05-08 03:25:00
5:55 AM,55.4,53.6,94,29.83,4.3,ESE,4.6,-,N/A,,Overcast,110,2013-05-08 03:55:00
6:25 AM,55.4,53.6,94,29.83,4.3,ESE,4.6,-,N/A,,Mostly Cloudy,120,2013-05-08 04:25:00
6:55 AM,55.4,53.6,94,29.83,4.3,SE,4.6,-,N/A,,Overcast,130,2013-05-08 04:55:00
7:25 AM,57.2,53.6,88,29.83,3.7,SSE,5.8,-,N/A,,Mostly Cloudy,150,2013-05-08 05:25:00
7:55 AM,57.2,55.4,94,29.80,-9999.0,South,6.9,-,N/A,,Overcast,170,2013-05-08 05:55:00
8:00 AM,58,55,85,29.83,3,South,6.7,,,,Mist,170,2013-05-08 06:00:00
8:25 AM,59.0,55.4,88,29.80,-9999.0,South,8.1,-,N/A,,Mostly Cloudy,170,2013-05-08 06:25:00
8:55 AM,59.0,53.6,82,29.80,3.1,South,10.4,-,N/A,,Overcast,170,2013-05-08 06:55:00
9:25 AM,59.0,53.6,82,29.80,3.7,South,10.4,-,N/A,,Overcast,180,2013-05-08 07:25:00
9:55 AM,60.8,53.6,77,29.80,4.3,South,10.4,-,N/A,,Overcast,180,2013-05-08 07:55:00
10:25 AM,62.6,55.4,77,29.80,4.3,SSE,10.4,-,N/A,,Mostly Cloudy,160,2013-05-08 08:25:00
10:55 AM,60.8,53.6,77,29.80,3.7,South,10.4,-,N/A,,Overcast,170,2013-05-08 08:55:00
11:00 AM,60,54,74,29.82,4,South,11.2,,,,Light Haze,180,2013-05-08 09:00:00
11:25 AM,60.8,53.6,77,29.80,4.3,South,12.7,-,N/A,,Overcast,190,2013-05-08 09:25:00
11:55 AM,62.6,55.4,77,29.80,4.3,South,10.4,-,N/A,,Overcast,180,2013-05-08 09:55:00
12:25 PM,64.4,55.4,73,29.80,5.6,South,11.5,-,N/A,,Overcast,180,2013-05-08 10:25:00
12:55 PM,64.4,53.6,68,29.80,6.2,South,13.8,-,N/A,,Mostly Cloudy,190,2013-05-08 10:55:00
1:25 PM,66.2,55.4,68,29.77,6.2,SSW,16.1,-,N/A,,Scattered Clouds,200,2013-05-08 11:25:00
1:55 PM,66.2,55.4,68,29.77,6.2,South,13.8,-,N/A,,Mostly Cloudy,180,2013-05-08 11:55:00
2:00 PM,68,55,54,29.79,7,South,13.4,,,,Partly Cloudy,180,2013-05-08 12:00:00
2:25 PM,66.2,53.6,64,29.77,6.2,South,12.7,-,N/A,,Mostly Cloudy,190,2013-05-08 12:25:00
2:55 PM,68.0,53.6,60,29.77,6.2,South,12.7,-,N/A,,Unknown,180,2013-05-08 12:55:00
3:25 PM,69.8,55.4,60,29.77,6.2,South,11.5,-,N/A,,Partly Cloudy,180,2013-05-08 13:25:00
3:55 PM,69.8,55.4,60,29.74,6.2,South,8.1,-,N/A,,Scattered Clouds,190,2013-05-08 13:55:00
4:25 PM,71.6,53.6,53,29.74,6.2,SSW,12.7,-,N/A,,Partly Cloudy,210,2013-05-08 14:25:00
4:55 PM,69.8,51.8,53,29.74,6.2,South,10.4,-,N/A,,Mostly Cloudy,190,2013-05-08 14:55:00
5:00 PM,69,53,45,29.75,9,South,11.2,,,,Scattered Clouds,190,2013-05-08 15:00:00
5:25 PM,59.0,55.4,88,29.77,3.7,WSW,20.7,-,N/A,Rain-Thunderstorm,Thunderstorms and Rain,240,2013-05-08 15:25:00
5:55 PM,59.0,57.2,94,29.77,5.6,West,5.8,-,N/A,,Light Drizzle,260,2013-05-08 15:55:00
6:25 PM,60.8,57.2,88,29.77,5.6,SE,3.5,-,N/A,Rain,Light Rain,140,2013-05-08 16:25:00
6:55 PM,60.8,59.0,94,29.77,3.7,ESE,3.5,-,N/A,,Unknown,120,2013-05-08 16:55:00
7:25 PM,60.8,59.0,94,29.74,3.7,ESE,4.6,-,N/A,,Partly Cloudy,110,2013-05-08 17:25:00
7:55 PM,60.8,59.0,94,29.77,4.3,SE,4.6,-,N/A,,Unknown,130,2013-05-08 17:55:00
8:00 PM,61,59,90,29.77,4,SE,4.5,,,,Mist,130,2013-05-08 18:00:00
8:25 PM,62.6,57.2,82,29.77,6.2,South,6.9,-,N/A,,Overcast,170,2013-05-08 18:25:00
8:55 PM,60.8,57.2,88,29.77,6.2,South,6.9,-,N/A,Rain,Light Rain,180,2013-05-08 18:55:00
9:25 PM,59.0,57.2,94,29.77,3.1,SSW,8.1,-,N/A,Rain,Heavy Rain Showers,210,2013-05-08 19:25:00
9:55 PM,59.0,57.2,94,29.77,5.0,South,5.8,-,N/A,Rain,Light Rain,180,2013-05-08 19:55:00
10:25 PM,57.2,57.2,100,29.77,3.7,South,3.5,-,N/A,Rain,Heavy Drizzle,190,2013-05-08 20:25:00
10:55 PM,57.2,57.2,100,29.77,3.7,SSE,3.5,-,N/A,,Unknown,160,2013-05-08 20:55:00
11:00 PM,57,56,97,29.80,4,SSE,4.5,,,Rain,Rain,160,2013-05-08 21:00:00
11:25 PM,57.2,57.2,100,29.80,2.5,SE,3.5,-,N/A,,Mostly Cloudy,140,2013-05-08 21:25:00
11:55 PM,57.2,57.2,100,29.77,1.7,SE,2.3,-,N/A,,Overcast,130,2013-05-08 21:55:00